YAOGAN-30 C

Satellite information

Favourite Embed

Satellite Type and Status

PAYLOADIN ORBIT

Key statistics

Satellite YAOGAN-30 C at a glance.

Uptime

2838

Days in orbit

Revolutions

≈ 15.0

Per day

Orbit

LEO

Low Earth Orbit

Inclination

35.0

Latest

Satellite identification and parameters

Extended collection of information and parameters for YAOGAN-30 C.

Object identification

Identified? True

Debris? False

Object name: YAOGAN-30 C

International designator: 2017-058C

Object number (NORAD): 42947

Object ID (CCSDS): 42947

Country: PEOPLES REPUBLIC OF CHINA (PRC)

Current information (Y/N): Y

RCS size: LARGE

Orbital parameters

Period: 95.908 minutes

Inclination: 34.9986 deg

SMA: 6940.6 km

Apoapsis: 565.772 km

Periapsis: 559.159 km

RAAN: 326.5576 deg

Eccentricy: 0.0004764

Argument of periapsis: 56.61 deg

Mean anomaly: 303.5064 deg

Mean motion: 15.01437318 rev/day

Mean motion (dot): 0.00002769 rev/day2

B* drag term: 0.00021231 1/REarth

Two-line elements (TLE)

Creation date: July 6, 2025, 10:36 p.m.

Reference frame: TEME

Reference center: EARTH

Epoch: July 6, 2025, 8:45 p.m. UTC

TLE line 0: 0 YAOGAN-30 C

TLE line 1: 1 42947U 17058C 25187.86471770 .00002769 00000-0 21231-3 0 9996

TLE line 2: 2 42947 34.9986 326.5576 0004764 56.6100 303.5064 15.01437318423979

Live tracking on map

Real-time ground track for satellite YAOGAN-30 C.

In-orbit conjunctions

There are no conjunctions computed for YAOGAN-30 C, at the moment. Check back to stay up to date, as we update our databases every day.

Go to all conjunctions

Associated space launch

YAOGAN-30 C was lifted into orbit during the mission ‘Long March 2C | 3 x Yaogan-30-01’, on board a Long March 2 space rocket.

The launch took place on Sept. 29, 2017, 4:21 a.m. from Launch Complex 3 (LC-3/LA-1).

For more information about the launch, click the button.

Launch to space Long March 2C | 3 x Yaogan-30-01
Long March 2C | 3 x Yaogan-30-01

Agency: N/A

Status: Launch Successful

Launch date: Sept. 29, 2017, 4:21 a.m. UTC

Rocket: Long March 2

Launch pad: Launch Complex 3 (LC-3/LA-1)

Location: Xichang Satellite Launch Center, People's Republic of China

...

Latest news about this satellite

There are no fresh news available about this satellite. Check back as we update our databases every day.


Newsletter sign-up

Weekly statistics, charts and insights to help you stay on top of the space industry.